| time (UTC) | temp C | wind direction | speed KPH | gust KPH | rain 1hr cm | rain 24hr cm | rain mn cm | humidity % | barometer mb |
| 20260508220327 | 16 | 254 | 1.6 | 4.8 | 0.00 | 0.00 | 0.00 | 63 | |
| 20260508215824 | 16 | 222 | 3.2 | 4.8 | 0.00 | 0.00 | 0.00 | 61 | |
| 20260508215321 | 16 | 202 | 6.4 | 12.9 | 0.00 | 0.00 | 0.00 | 59 | |
| 20260508214817 | 16 | 219 | 0.0 | 4.8 | 0.00 | 0.00 | 0.00 | 60 | |
| 20260508214315 | 16 | 119 | 1.6 | 9.7 | 0.00 | 0.00 | 0.00 | 60 | |
| 20260508213811 | 16 | 190 | 4.8 | 4.8 | 0.00 | 0.00 | 0.00 | 60 | |
| 20260508213308 | 16 | 182 | 4.8 | 9.7 | 0.00 | 0.00 | 0.00 | 60 | |
| 20260508212804 | 17 | 217 | 1.6 | 3.2 | 0.00 | 0.00 | 0.00 | 59 | |
| 20260508212301 | 17 | 192 | 4.8 | 9.7 | 0.00 | 0.00 | 0.00 | 59 | |
| 20260508211756 | 17 | 258 | 3.2 | 9.7 | 0.00 | 0.00 | 0.00 | 57 | |
| 20260508211252 | 17 | 239 | 6.4 | 14.5 | 0.00 | 0.00 | 0.00 | 56 | |
| 20260508210750 | 17 | 202 | 1.6 | 4.8 | 0.00 | 0.00 | 0.00 | 54 | |
| 20260508210247 | 17 | 227 | 3.2 | 3.2 | 0.00 | 0.00 | 0.00 | 54 | |
| 20260508205744 | 18 | 254 | 1.6 | 4.8 | 0.00 | 0.00 | 0.00 | 54 | |
| 20260508205240 | 18 | 289 | 1.6 | 4.8 | 0.00 | 0.00 | 0.00 | 54 | |
| 20260508204736 | 18 | 337 | 3.2 | 8.0 | 0.00 | 0.00 | 0.00 | 54 | |
| 20260508204233 | 17 | 214 | 3.2 | 9.7 | 0.00 | 0.00 | 0.00 | 56 | |
| 20260508203729 | 17 | 227 | 4.8 | 8.0 | 0.00 | 0.00 | 0.00 | 57 | |
| 20260508203225 | 16 | 197 | 1.6 | 4.8 | 0.00 | 0.00 | 0.00 | 60 | |
| 20260508202716 | 16 | 127 | 1.6 | 8.0 | 0.00 | 0.00 | 0.00 | 61 | |
| 20260508202213 | 16 | 186 | 4.8 | 9.7 | 0.00 | 0.00 | 0.00 | 60 | |
| 20260508201710 | 17 | 244 | 3.2 | 8.0 | 0.00 | 0.00 | 0.00 | 58 | |
| 20260508201207 | 17 | 330 | 3.2 | 4.8 | 0.00 | 0.00 | 0.00 | 56 | |
| 20260508200704 | 17 | 180 | 4.8 | 8.0 | 0.00 | 0.00 | 0.00 | 56 | |
| 20260508200159 | 17 | 195 | 9.7 | 11.3 | 0.00 | 0.00 | 0.00 | 56 | |
| 20260508195656 | 17 | 230 | 1.6 | 4.8 | 0.00 | 0.00 | 0.00 | 54 | |
| 20260508195153 | 17 | 11 | 3.2 | 4.8 | 0.00 | 0.00 | 0.00 | 56 | |
| 20260508194649 | 17 | 101 | 3.2 | 9.7 | 0.00 | 0.00 | 0.00 | 55 | |
| 20260508194146 | 17 | 197 | 1.6 | 8.0 | 0.00 | 0.00 | 0.00 | 56 | |
| 20260508193643 | 17 | 156 | 1.6 | 8.0 | 0.00 | 0.00 | 0.00 | 56 | |
| 20260508193140 | 17 | 265 | 1.6 | 3.2 | 0.00 | 0.00 | 0.00 | 56 | |
| 20260508192636 | 17 | 217 | 4.8 | 8.0 | 0.00 | 0.00 | 0.00 | 53 | |
| 20260508192133 | 17 | 126 | 4.8 | 8.0 | 0.00 | 0.00 | 0.00 | 53 | |
| 20260508191625 | 17 | 176 | 3.2 | 8.0 | 0.00 | 0.00 | 0.00 | 53 | |
| 20260508191121 | 17 | 139 | 4.8 | 11.3 | 0.00 | 0.00 | 0.00 | 52 | |
| 20260508190619 | 17 | 225 | 3.2 | 4.8 | 0.00 | 0.00 | 0.00 | 51 | |
| 20260508190115 | 17 | 194 | 4.8 | 9.7 | 0.00 | 0.00 | 0.00 | 52 | |
| 20260508185612 | 18 | 154 | 3.2 | 8.0 | 0.00 | 0.00 | 0.00 | 51 | |
| 20260508185109 | 17 | 184 | 1.6 | 3.2 | 0.00 | 0.00 | 0.00 | 51 | |
| 20260508184607 | 17 | 150 | 1.6 | 3.2 | 0.00 | 0.00 | 0.00 | 51 | |
| 20260508184104 | 17 | 198 | 1.6 | 8.0 | 0.00 | 0.00 | 0.00 | 52 | |
| 20260508183600 | 17 | 58 | 3.2 | 3.2 | 0.00 | 0.00 | 0.00 | 51 | |
| 20260508183056 | 17 | 212 | 1.6 | 3.2 | 0.00 | 0.00 | 0.00 | 50 | |
| 20260508182552 | 17 | 272 | 1.6 | 4.8 | 0.00 | 0.00 | 0.00 | 51 | |
| 20260508182049 | 17 | 158 | 4.8 | 11.3 | 0.00 | 0.00 | 0.00 | 50 | |
| 20260508181544 | 17 | 68 | 1.6 | 4.8 | 0.00 | 0.00 | 0.00 | 50 | |
| 20260508181042 | 17 | 213 | 3.2 | 4.8 | 0.00 | 0.00 | 0.00 | 49 | |
| 20260508180538 | 17 | 195 | 6.4 | 9.7 | 0.00 | 0.00 | 0.00 | 48 | |
| 20260508180035 | 17 | 83 | 6.4 | 9.7 | 0.00 | 0.00 | 0.00 | 47 | |
| 20260508175532 | 17 | 175 | 3.2 | 4.8 | 0.00 | 0.00 | 0.00 | 49 | |
| 20260508175029 | 17 | 162 | 1.6 | 9.7 | 0.00 | 0.00 | 0.00 | 49 | |
| 20260508174526 | 17 | 218 | 4.8 | 9.7 | 0.00 | 0.00 | 0.00 | 48 | |
| 20260508174023 | 17 | 254 | 0.0 | 4.8 | 0.00 | 0.00 | 0.00 | 50 | |
| 20260508173520 | 17 | 285 | 3.2 | 4.8 | 0.00 | 0.00 | 0.00 | 48 | |
| 20260508173016 | 17 | 201 | 3.2 | 8.0 | 0.00 | 0.00 | 0.00 | 49 | |
| 20260508172513 | 17 | 197 | 1.6 | 4.8 | 0.00 | 0.00 | 0.00 | 46 | |
| 20260508172010 | 17 | 122 | 3.2 | 8.0 | 0.00 | 0.00 | 0.00 | 43 | |
| 20260508171506 | 17 | 341 | 6.4 | 11.3 | 0.00 | 0.00 | 0.00 | 41 | |
| 20260508171003 | 17 | 261 | 3.2 | 9.7 | 0.00 | 0.00 | 0.00 | 39 | |
| 20260508170500 | 17 | 206 | 4.8 | 4.8 | 0.00 | 0.00 | 0.00 | 40 | |
| 20260508165957 | 17 | 296 | 1.6 | 8.0 | 0.00 | 0.00 | 0.00 | 42 | |
| 20260508165455 | 17 | 256 | 1.6 | 4.8 | 0.00 | 0.00 | 0.00 | 42 | |
| 20260508164950 | 17 | 234 | 1.6 | 3.2 | 0.00 | 0.00 | 0.00 | 42 | |
| 20260508164448 | 17 | 310 | 4.8 | 8.0 | 0.00 | 0.00 | 0.00 | 39 | |
| 20260508163944 | 17 | 213 | 0.0 | 3.2 | 0.00 | 0.00 | 0.00 | 41 | |
| 20260508163442 | 16 | 261 | 1.6 | 3.2 | 0.00 | 0.00 | 0.00 | 45 | |
| 20260508162938 | 15 | 288 | 3.2 | 8.0 | 0.00 | 0.00 | 0.00 | 44 | |
| 20260508162436 | 16 | 250 | 1.6 | 4.8 | 0.00 | 0.00 | 0.00 | 42 | |
| 20260508161932 | 16 | 312 | 4.8 | 4.8 | 0.00 | 0.00 | 0.00 | 43 | |
| 20260508161429 | 17 | 174 | 3.2 | 8.0 | 0.00 | 0.00 | 0.00 | 41 | |
| 20260508160927 | 17 | 281 | 1.6 | 3.2 | 0.00 | 0.00 | 0.00 | 43 | |
| 20260508160426 | 16 | 244 | 3.2 | 4.8 | 0.00 | 0.00 | 0.00 | 46 | |
| 20260508155921 | 16 | 166 | 3.2 | 4.8 | 0.00 | 0.00 | 0.00 | 43 | |
| 20260508155419 | 16 | 236 | 0.0 | 3.2 | 0.00 | 0.00 | 0.00 | 44 | |
| 20260508154915 | 16 | 33 | 3.2 | 3.2 | 0.00 | 0.00 | 0.00 | 45 | |
| 20260508154413 | 16 | 265 | 3.2 | 4.8 | 0.00 | 0.00 | 0.00 | 44 | |
| 20260508153909 | 15 | 284 | 1.6 | 1.6 | 0.00 | 0.00 | 0.00 | 45 | |
| 20260508153407 | 16 | 225 | 0.0 | 1.6 | 0.00 | 0.00 | 0.00 | 43 | |
| 20260508152903 | 16 | 303 | 0.0 | 3.2 | 0.00 | 0.00 | 0.00 | 45 | |
| 20260508152359 | 15 | 244 | 0.0 | 4.8 | 0.00 | 0.00 | 0.00 | 46 | |
| 20260508151856 | 14 | 175 | 0.0 | 4.8 | 0.00 | 0.00 | 0.00 | 48 | |
| 20260508151353 | 15 | 240 | 1.6 | 3.2 | 0.00 | 0.00 | 0.00 | 46 | |
| 20260508150849 | 15 | 237 | 0.0 | 3.2 | 0.00 | 0.00 | 0.00 | 49 | |
| 20260508150346 | 14 | 248 | 1.6 | 3.2 | 0.00 | 0.00 | 0.00 | 47 | |
| 20260508145842 | 15 | 53 | 1.6 | 1.6 | 0.00 | 0.00 | 0.00 | 47 | |
| 20260508145338 | 13 | 254 | 1.6 | 3.2 | 0.00 | 0.00 | 0.00 | 48 | |
| 20260508144835 | 15 | 313 | 4.8 | 8.0 | 0.00 | 0.00 | 0.00 | 49 | |
| 20260508144333 | 15 | 348 | 1.6 | 3.2 | 0.00 | 0.00 | 0.00 | 47 | |
| 20260508143830 | 15 | 185 | 0.0 | 1.6 | 0.00 | 0.00 | 0.00 | 47 | |
| 20260508143327 | 13 | 249 | 1.6 | 3.2 | 0.00 | 0.00 | 0.00 | 51 | |
| 20260508142824 | 15 | 250 | 3.2 | 4.8 | 0.00 | 0.00 | 0.00 | 53 | |
| 20260508142321 | 14 | 322 | 4.8 | 4.8 | 0.00 | 0.00 | 0.00 | 55 | |
| 20260508141817 | 13 | 293 | 1.6 | 3.2 | 0.00 | 0.00 | 0.00 | 54 | |
| 20260508141314 | 13 | 318 | 4.8 | 4.8 | 0.00 | 0.00 | 0.00 | 58 | |
| 20260508140812 | 13 | 308 | 0.0 | 1.6 | 0.00 | 0.00 | 0.00 | 58 | |
| 20260508140309 | 12 | 302 | 1.6 | 4.8 | 0.00 | 0.00 | 0.00 | 60 | |
| 20260508135804 | 13 | 243 | 1.6 | 1.6 | 0.00 | 0.00 | 0.00 | 60 | |
| 20260508135301 | 13 | 246 | 3.2 | 3.2 | 0.00 | 0.00 | 0.00 | 59 | |
| 20260508134756 | 13 | 214 | 1.6 | 3.2 | 0.00 | 0.00 | 0.00 | 60 | |
| 20260508134254 | 13 | 233 | 0.0 | 1.6 | 0.00 | 0.00 | 0.00 | 59 | |
| 20260508133750 | 13 | 238 | 1.6 | 3.2 | 0.00 | 0.00 | 0.00 | 62 | |
| 20260508133248 | 12 | 245 | 0.0 | 3.2 | 0.00 | 0.00 | 0.00 | 62 | |
| 20260508132746 | 12 | 254 | 1.6 | 1.6 | 0.00 | 0.00 | 0.00 | 64 | |
| 20260508132243 | 12 | 245 | 0.0 | 3.2 | 0.00 | 0.00 | 0.00 | 66 | |
| 20260508131738 | 12 | 258 | 1.6 | 3.2 | 0.00 | 0.00 | 0.00 | 66 | |
| 20260508131235 | 13 | 270 | 1.6 | 3.2 | 0.00 | 0.00 | 0.00 | 63 | |
| 20260508130731 | 12 | 246 | 1.6 | 1.6 | 0.00 | 0.00 | 0.00 | 65 | |
| 20260508130229 | 11 | 234 | 0.0 | 1.6 | 0.00 | 0.00 | 0.00 | 67 | |
| 20260508125724 | 10 | 278 | 3.2 | 4.8 | 0.00 | 0.00 | 0.00 | 71 | |
| 20260508125221 | 11 | 302 | 1.6 | 4.8 | 0.00 | 0.00 | 0.00 | 69 | |
| 20260508124719 | 11 | 263 | 1.6 | 1.6 | 0.00 | 0.00 | 0.00 | 68 | |
| 20260508124216 | 11 | 247 | 0.0 | 1.6 | 0.00 | 0.00 | 0.00 | 70 | |
| 20260508123714 | 11 | 278 | 1.6 | 1.6 | 0.00 | 0.00 | 0.00 | 69 | |
| 20260508123212 | 11 | 172 | 1.6 | 3.2 | 0.00 | 0.00 | 0.00 | 69 | |
| 20260508122708 | 11 | 233 | 0.0 | 1.6 | 0.00 | 0.00 | 0.00 | 71 | |
| 20260508122205 | 10 | 241 | 1.6 | 3.2 | 0.00 | 0.00 | 0.00 | 73 | |
| 20260508121703 | 10 | 257 | 1.6 | 1.6 | 0.00 | 0.00 | 0.00 | 73 | |
| 20260508121201 | 9 | 260 | 1.6 | 1.6 | 0.00 | 0.00 | 0.00 | 76 | |
| 20260508120658 | 8 | 246 | 1.6 | 4.8 | 0.00 | 0.00 | 0.00 | 78 | |
| 20260508120156 | 8 | 302 | 1.6 | 4.8 | 0.00 | 0.00 | 0.00 | 78 | |
| 20260508115653 | 8 | 246 | 1.6 | 3.2 | 0.00 | 0.00 | 0.00 | 80 | |
| 20260508115150 | 7 | 243 | 0.0 | 1.6 | 0.00 | 0.00 | 0.00 | 82 | |
| 20260508114647 | 7 | 260 | 1.6 | 1.6 | 0.00 | 0.00 | 0.00 | 83 | |
| 20260508114144 | 7 | 258 | 0.0 | 1.6 | 0.00 | 0.00 | 0.00 | 85 | |
| 20260508113640 | 6 | 270 | 1.6 | 3.2 | 0.00 | 0.00 | 0.00 | 86 | |
| 20260508113139 | 6 | 280 | 1.6 | 1.6 | 0.00 | 0.00 | 0.00 | 86 | |
| 20260508112635 | 6 | 297 | 1.6 | 1.6 | 0.00 | 0.00 | 0.00 | 87 | |
| 20260508112132 | 6 | 254 | 0.0 | 0.0 | 0.00 | 0.00 | 0.00 | 87 | |
| 20260508111628 | 6 | 254 | 0.0 | 0.0 | 0.00 | 0.00 | 0.00 | 88 | |
| 20260508111125 | 6 | 247 | 0.0 | 0.0 | 0.00 | 0.00 | 0.00 | 88 | |
| 20260508110623 | 6 | 248 | 0.0 | 0.0 | 0.00 | 0.00 | 0.00 | 88 | |
| 20260508110119 | 5 | 242 | 0.0 | 0.0 | 0.00 | 0.00 | 0.00 | 88 | |
| 20260508105614 | 5 | 245 | 0.0 | 0.0 | 0.00 | 0.00 | 0.00 | 88 | |
| 20260508105111 | 5 | 245 | 0.0 | 0.0 | 0.00 | 0.00 | 0.00 | 88 | |
| 20260508104609 | 5 | 241 | 0.0 | 0.0 | 0.00 | 0.00 | 0.00 | 88 | |
| 20260508104105 | 5 | 244 | 0.0 | 0.0 | 0.00 | 0.00 | 0.00 | 88 | |
| 20260508103603 | 5 | 252 | 0.0 | 0.0 | 0.00 | 0.00 | 0.00 | 88 | |
| 20260508103100 | 5 | 255 | 0.0 | 0.0 | 0.00 | 0.00 | 0.00 | 88 | |
| 20260508102557 | 5 | 244 | 0.0 | 0.0 | 0.00 | 0.00 | 0.00 | 88 | |
| 20260508102055 | 5 | 244 | 0.0 | 0.0 | 0.00 | 0.00 | 0.00 | 88 | |
| 20260508101552 | 5 | 241 | 0.0 | 0.0 | 0.00 | 0.00 | 0.00 | 87 | |
| 20260508101049 | 5 | 241 | 0.0 | 0.0 | 0.00 | 0.00 | 0.00 | 87 | |
| 20260508100547 | 5 | 237 | 0.0 | 0.0 | 0.00 | 0.00 | 0.00 | 87 | |
| 20260508100044 | 6 | 238 | 0.0 | 0.0 | 0.00 | 0.00 | 0.00 | 87 | |
| 20260508095541 | 5 | 239 | 0.0 | 0.0 | 0.00 | 0.00 | 0.00 | 86 | |
| 20260508095038 | 5 | 249 | 0.0 | 0.0 | 0.00 | 0.00 | 0.00 | 86 | |
| 20260508094535 | 6 | 244 | 0.0 | 0.0 | 0.00 | 0.00 | 0.00 | 85 | |
| 20260508094032 | 6 | 242 | 0.0 | 0.0 | 0.00 | 0.00 | 0.00 | 85 | |
| 20260508093529 | 6 | 241 | 0.0 | 0.0 | 0.00 | 0.00 | 0.00 | 84 | |
| 20260508093027 | 6 | 237 | 0.0 | 0.0 | 0.00 | 0.00 | 0.00 | 84 | |
| 20260508092524 | 6 | 233 | 0.0 | 0.0 | 0.00 | 0.00 | 0.00 | 83 | |
| 20260508092023 | 6 | 232 | 0.0 | 0.0 | 0.00 | 0.00 | 0.00 | 83 | |
| 20260508091519 | 6 | 237 | 0.0 | 1.6 | 0.00 | 0.00 | 0.00 | 83 | |
| 20260508091016 | 7 | 239 | 0.0 | 0.0 | 0.00 | 0.00 | 0.00 | 82 | |
| 20260508090514 | 7 | 240 | 0.0 | 0.0 | 0.00 | 0.00 | 0.00 | 82 | |
| 20260508090010 | 7 | 242 | 0.0 | 0.0 | 0.00 | 0.00 | 0.00 | 81 | |
| 20260508085507 | 7 | 243 | 0.0 | 0.0 | 0.00 | 0.00 | 0.00 | 81 | |
| 20260508085004 | 7 | 230 | 0.0 | 1.6 | 0.00 | 0.00 | 0.00 | 80 | |
| 20260508084501 | 7 | 273 | 0.0 | 1.6 | 0.00 | 0.00 | 0.00 | 80 | |
| 20260508083958 | 7 | 254 | 0.0 | 0.0 | 0.00 | 0.00 | 0.00 | 79 | |
| 20260508083455 | 7 | 254 | 0.0 | 1.6 | 0.00 | 0.00 | 0.00 | 79 | |
| 20260508082950 | 7 | 274 | 1.6 | 1.6 | 0.00 | 0.00 | 0.00 | 79 | |
| 20260508082447 | 7 | 255 | 0.0 | 1.6 | 0.00 | 0.00 | 0.00 | 78 | |
| 20260508081945 | 7 | 261 | 1.6 | 3.2 | 0.00 | 0.00 | 0.00 | 78 | |
| 20260508081442 | 7 | 251 | 0.0 | 1.6 | 0.00 | 0.00 | 0.00 | 78 | |
| 20260508080938 | 7 | 245 | 0.0 | 1.6 | 0.00 | 0.00 | 0.00 | 77 | |
| 20260508080437 | 8 | 246 | 0.0 | 1.6 | 0.00 | 0.00 | 0.00 | 77 | |
| 20260508075933 | 8 | 259 | 0.0 | 1.6 | 0.00 | 0.00 | 0.00 | 77 | |
| 20260508075430 | 8 | 254 | 0.0 | 3.2 | 0.00 | 0.00 | 0.00 | 76 | |
| 20260508074928 | 8 | 270 | 1.6 | 3.2 | 0.00 | 0.00 | 0.00 | 76 | |
| 20260508074425 | 8 | 337 | 3.2 | 8.0 | 0.00 | 0.00 | 0.00 | 76 | |
| 20260508073921 | 8 | 267 | 0.0 | 4.8 | 0.00 | 0.00 | 0.00 | 76 | |
| 20260508073420 | 8 | 310 | 3.2 | 4.8 | 0.00 | 0.00 | 0.00 | 76 | |
| 20260508072916 | 8 | 251 | 0.0 | 3.2 | 0.00 | 0.00 | 0.00 | 76 | |
| 20260508072412 | 7 | 252 | 0.0 | 1.6 | 0.00 | 0.00 | 0.00 | 76 | |
| 20260508071910 | 7 | 241 | 1.6 | 3.2 | 0.00 | 0.00 | 0.00 | 77 | |
| 20260508071408 | 7 | 248 | 0.0 | 1.6 | 0.00 | 0.00 | 0.00 | 76 | |
| 20260508070905 | 7 | 259 | 0.0 | 1.6 | 0.00 | 0.00 | 0.00 | 77 | |
| 20260508070403 | 7 | 272 | 1.6 | 3.2 | 0.00 | 0.00 | 0.00 | 77 | |
| 20260508065900 | 7 | 244 | 0.0 | 0.0 | 0.00 | 0.00 | 0.00 | 78 | |
| 20260508065358 | 7 | 246 | 0.0 | 0.0 | 0.00 | 0.00 | 0.00 | 78 | |
| 20260508064856 | 7 | 239 | 0.0 | 0.0 | 0.00 | 0.00 | 0.00 | 78 | |
| 20260508064353 | 7 | 241 | 0.0 | 0.0 | 0.00 | 0.00 | 0.00 | 78 | |
| 20260508063851 | 7 | 239 | 0.0 | 0.0 | 0.00 | 0.00 | 0.00 | 78 | |
| 20260508063349 | 7 | 240 | 0.0 | 0.0 | 0.00 | 0.00 | 0.00 | 77 | |
| 20260508062846 | 7 | 239 | 0.0 | 0.0 | 0.00 | 0.00 | 0.00 | 77 | |
| 20260508062343 | 7 | 235 | 0.0 | 0.0 | 0.00 | 0.00 | 0.00 | 77 | |
| 20260508061840 | 7 | 233 | 0.0 | 0.0 | 0.00 | 0.00 | 0.00 | 76 | |
| 20260508061337 | 7 | 233 | 0.0 | 0.0 | 0.00 | 0.00 | 0.00 | 76 | |
| 20260508060833 | 7 | 251 | 0.0 | 0.0 | 0.00 | 0.00 | 0.00 | 76 | |
| 20260508060331 | 7 | 254 | 0.0 | 0.0 | 0.00 | 0.00 | 0.00 | 75 | |
| 20260508055826 | 7 | 247 | 0.0 | 0.0 | 0.00 | 0.00 | 0.00 | 75 | |
| 20260508055324 | 7 | 247 | 0.0 | 0.0 | 0.00 | 0.00 | 0.00 | 74 | |
| 20260508054820 | 7 | 244 | 0.0 | 0.0 | 0.00 | 0.00 | 0.00 | 74 | |
| 20260508054318 | 7 | 257 | 0.0 | 0.0 | 0.00 | 0.00 | 0.00 | 73 | |
| 20260508053815 | 8 | 247 | 0.0 | 0.0 | 0.00 | 0.00 | 0.00 | 72 | |
| 20260508053313 | 8 | 248 | 0.0 | 0.0 | 0.00 | 0.00 | 0.00 | 71 | |
| 20260508052809 | 8 | 245 | 0.0 | 0.0 | 0.00 | 0.00 | 0.00 | 71 | |
| 20260508052307 | 8 | 241 | 0.0 | 0.0 | 0.00 | 0.00 | 0.00 | 70 | |
| 20260508051803 | 8 | 274 | 1.6 | 1.6 | 0.00 | 0.00 | 0.00 | 70 | |
| 20260508051258 | 8 | 271 | 1.6 | 1.6 | 0.00 | 0.00 | 0.00 | 70 | |
| 20260508050755 | 8 | 249 | 0.0 | 0.0 | 0.00 | 0.00 | 0.00 | 69 | |
| 20260508050252 | 8 | 245 | 0.0 | 1.6 | 0.00 | 0.00 | 0.00 | 69 | |
| 20260508045748 | 8 | 237 | 0.0 | 1.6 | 0.00 | 0.00 | 0.00 | 69 | |
| 20260508045246 | 8 | 274 | 0.0 | 0.0 | 0.00 | 0.00 | 0.00 | 68 | |
| 20260508044743 | 9 | 241 | 0.0 | 1.6 | 0.00 | 0.00 | 0.00 | 68 | |
| 20260508044240 | 9 | 249 | 0.0 | 0.0 | 0.00 | 0.00 | 0.00 | 67 | |
| 20260508043736 | 9 | 248 | 0.0 | 0.0 | 0.00 | 0.00 | 0.00 | 66 | |
| 20260508043233 | 9 | 258 | 1.6 | 1.6 | 0.00 | 0.00 | 0.00 | 66 | |
| 20260508042730 | 10 | 248 | 0.0 | 1.6 | 0.00 | 0.00 | 0.00 | 66 | |
| 20260508042227 | 10 | 268 | 0.0 | 0.0 | 0.00 | 0.00 | 0.00 | 66 | |
| 20260508041723 | 10 | 239 | 0.0 | 0.0 | 0.00 | 0.00 | 0.00 | 65 | |
| 20260508041220 | 10 | 241 | 0.0 | 1.6 | 0.00 | 0.00 | 0.00 | 64 | |
| 20260508040717 | 10 | 250 | 0.0 | 1.6 | 0.00 | 0.00 | 0.00 | 64 | |
| 20260508040214 | 10 | 255 | 0.0 | 1.6 | 0.00 | 0.00 | 0.00 | 63 | |
| 20260508035711 | 10 | 204 | 0.0 | 3.2 | 0.00 | 0.00 | 0.00 | 63 | |
| 20260508035209 | 10 | 235 | 0.0 | 1.6 | 0.00 | 0.00 | 0.00 | 63 | |
| 20260508034705 | 10 | 223 | 0.0 | 1.6 | 0.00 | 0.00 | 0.00 | 62 | |
| 20260508034203 | 10 | 242 | 0.0 | 1.6 | 0.00 | 0.00 | 0.00 | 61 | |
| 20260508033659 | 10 | 255 | 0.0 | 1.6 | 0.00 | 0.00 | 0.00 | 60 | |
| 20260508033158 | 10 | 227 | 1.6 | 1.6 | 0.00 | 0.00 | 0.00 | 61 | |
| 20260508032655 | 10 | 241 | 0.0 | 1.6 | 0.00 | 0.00 | 0.00 | 60 | |
| 20260508032152 | 10 | 240 | 0.0 | 1.6 | 0.00 | 0.00 | 0.00 | 59 | |
| 20260508031649 | 10 | 261 | 0.0 | 0.0 | 0.00 | 0.00 | 0.00 | 58 | |
| 20260508031145 | 10 | 303 | 1.6 | 3.2 | 0.00 | 0.00 | 0.00 | 58 | |
| 20260508030641 | 11 | 292 | 3.2 | 8.0 | 0.00 | 0.00 | 0.00 | 57 | |
| 20260508030139 | 11 | 254 | 1.6 | 4.8 | 0.00 | 0.00 | 0.00 | 57 | |
| 20260508025635 | 11 | 262 | 1.6 | 4.8 | 0.00 | 0.00 | 0.00 | 56 | |
| 20260508025133 | 11 | 271 | 3.2 | 8.0 | 0.00 | 0.00 | 0.00 | 57 | |
| 20260508024628 | 11 | 270 | 1.6 | 9.7 | 0.00 | 0.00 | 0.00 | 55 | |
| 20260508024126 | 11 | 277 | 0.0 | 8.0 | 0.00 | 0.00 | 0.00 | 53 | |
| 20260508023622 | 11 | 272 | 1.6 | 4.8 | 0.00 | 0.00 | 0.00 | 53 | |
| 20260508023120 | 11 | 260 | 1.6 | 1.6 | 0.00 | 0.00 | 0.00 | 50 | |
| 20260508022615 | 11 | 257 | 0.0 | 1.6 | 0.00 | 0.00 | 0.00 | 49 | |
| 20260508022113 | 11 | 242 | 0.0 | 4.8 | 0.00 | 0.00 | 0.00 | 48 | |
| 20260508021608 | 11 | 277 | 1.6 | 3.2 | 0.00 | 0.00 | 0.00 | 48 | |
| 20260508021104 | 11 | 297 | 1.6 | 3.2 | 0.00 | 0.00 | 0.00 | 47 | |
| 20260508020602 | 11 | 271 | 1.6 | 3.2 | 0.00 | 0.00 | 0.00 | 47 | |
| 20260508020059 | 11 | 303 | 4.8 | 4.8 | 0.00 | 0.00 | 0.00 | 46 | |
| 20260508015557 | 11 | 285 | 3.2 | 3.2 | 0.00 | 0.00 | 0.00 | 46 | |
| 20260508015053 | 11 | 272 | 3.2 | 3.2 | 0.00 | 0.00 | 0.00 | 46 | |
| 20260508014550 | 11 | 261 | 0.0 | 8.0 | 0.00 | 0.00 | 0.00 | 46 | |
| 20260508014046 | 11 | 254 | 1.6 | 1.6 | 0.00 | 0.00 | 0.00 | 47 | |
| 20260508013542 | 11 | 248 | 0.0 | 1.6 | 0.00 | 0.00 | 0.00 | 46 | |
| 20260508013039 | 11 | 258 | 1.6 | 1.6 | 0.00 | 0.00 | 0.00 | 46 | |
| 20260508012537 | 11 | 254 | 0.0 | 1.6 | 0.00 | 0.00 | 0.00 | 47 | |
| 20260508012034 | 11 | 264 | 0.0 | 1.6 | 0.00 | 0.00 | 0.00 | 47 | |
| 20260508011532 | 11 | 264 | 0.0 | 1.6 | 0.00 | 0.00 | 0.00 | 46 | |
| 20260508011029 | 11 | 259 | 0.0 | 1.6 | 0.00 | 0.00 | 0.00 | 46 | |
| 20260508010526 | 11 | 254 | 0.0 | 1.6 | 0.00 | 0.00 | 0.00 | 45 | |
| 20260508010024 | 11 | 257 | 0.0 | 1.6 | 0.00 | 0.00 | 0.00 | 45 | |
| 20260508005520 | 11 | 258 | 0.0 | 1.6 | 0.00 | 0.00 | 0.00 | 44 | |
| 20260508005017 | 11 | 261 | 0.0 | 1.6 | 0.00 | 0.00 | 0.00 | 44 | |
| 20260508004513 | 11 | 257 | 0.0 | 3.2 | 0.00 | 0.00 | 0.00 | 44 | |
| 20260508004010 | 12 | 252 | 1.6 | 3.2 | 0.00 | 0.00 | 0.00 | 42 | |
| 20260508003506 | 12 | 265 | 1.6 | 4.8 | 0.00 | 0.00 | 0.00 | 43 | |
| 20260508003005 | 12 | 257 | 0.0 | 3.2 | 0.00 | 0.00 | 0.00 | 43 | |
| 20260508002459 | 12 | 252 | 0.0 | 3.2 | 0.00 | 0.00 | 0.00 | 43 | |
| 20260508001956 | 12 | 248 | 1.6 | 4.8 | 0.00 | 0.00 | 0.00 | 42 | |
| 20260508001453 | 12 | 285 | 1.6 | 1.6 | 0.00 | 0.00 | 0.00 | 43 | |
| 20260508000949 | 12 | 243 | 0.0 | 0.0 | 0.00 | 0.00 | 0.00 | 42 | |
| 20260508000444 | 12 | 251 | 3.2 | 4.8 | 0.00 | 0.00 | 0.00 | 42 | |
| 20260507235942 | 12 | 261 | 3.2 | 9.7 | 0.00 | 0.00 | 0.00 | 41 | |
| 20260507235438 | 12 | 262 | 4.8 | 9.7 | 0.00 | 0.00 | 0.00 | 41 | |
| 20260507234936 | 12 | 263 | 1.6 | 4.8 | 0.00 | 0.00 | 0.00 | 41 | |
| 20260507234433 | 12 | 239 | 0.0 | 3.2 | 0.00 | 0.00 | 0.00 | 42 | |
| 20260507233929 | 12 | 254 | 1.6 | 1.6 | 0.00 | 0.00 | 0.00 | 41 | |
| 20260507233426 | 12 | 264 | 1.6 | 11.3 | 0.00 | 0.00 | 0.00 | 41 | |
| 20260507232925 | 12 | 308 | 1.6 | 3.2 | 0.00 | 0.00 | 0.00 | 41 | |
| 20260507232421 | 13 | 257 | 1.6 | 1.6 | 0.00 | 0.00 | 0.00 | 40 | |
| 20260507231918 | 13 | 295 | 4.8 | 9.7 | 0.00 | 0.00 | 0.00 | 39 | |
| 20260507231414 | 13 | 269 | 1.6 | 8.0 | 0.00 | 0.00 | 0.00 | 38 | |
| 20260507230911 | 13 | 316 | 4.8 | 9.7 | 0.00 | 0.00 | 0.00 | 39 | |
| 20260507230409 | 13 | 273 | 3.2 | 8.0 | 0.00 | 0.00 | 0.00 | 38 | |
| 20260507225908 | 13 | 309 | 3.2 | 4.8 | 0.00 | 0.00 | 0.00 | 38 | |
| 20260507225405 | 13 | 281 | 3.2 | 9.7 | 0.00 | 0.00 | 0.00 | 38 | |
| 20260507224901 | 13 | 265 | 3.2 | 4.8 | 0.00 | 0.00 | 0.00 | 39 | |
| 20260507224357 | 13 | 291 | 4.8 | 11.3 | 0.00 | 0.00 | 0.00 | 37 | |
| 20260507223854 | 13 | 293 | 1.6 | 11.3 | 0.00 | 0.00 | 0.00 | 38 | |
| 20260507223350 | 13 | 238 | 3.2 | 8.0 | 0.00 | 0.00 | 0.00 | 38 | |
| 20260507222848 | 13 | 271 | 3.2 | 11.3 | 0.00 | 0.00 | 0.00 | 38 | |
| 20260507222344 | 13 | 341 | 14.5 | 20.9 | 0.00 | 0.00 | 0.00 | 37 | |
| 20260507221841 | 13 | 247 | 8.0 | 11.3 | 0.00 | 0.00 | 0.00 | 37 | |
| 20260507221337 | 13 | 305 | 4.8 | 14.5 | 0.00 | 0.00 | 0.00 | 39 | |
| 20260507220833 | 13 | 272 | 6.4 | 12.9 | 0.00 | 0.00 | 0.00 | 37 |